Zurück zum Katalog

COSMOS 1174 DEB

AktivLEO
NORAD 12354·DEBRIS·🇷🇺 Russia

Gestartet Apr 18, 1980 von Baikonur Cosmodrome

Loading…

Nächste Überflüge (nächste 24 Stunden)

TLE

AktuellSource: Space-Track

Epoche: Sep 14, 2026, 11:29 UTC

1 12354U 80030Y   26257.47901944  .00005504  00000-0  21430-3 0  9993
2 12354  66.0979 294.2735 0289986 172.3358 188.2353 14.95906984410377

Verfolge COSMOS 1174 DEB in Echtzeit mit AllMySat

Download on the App Store